Weather in Koz'minskiy

Russia / Tula Oblast     53°10′40″N   38°27′06″E
temp.,
°C
wind,
m/s
gust,
m/s
humid.,
%
clouds,
%
prec.,
mm/h
press.,
hPa
HPBL,
m
17 april, sat
sat1700:00+9wnw22775 0.0 101818
03:00+9nne33763 0.0 101861
06:00+8nne347761 0.0 101850
09:00+11ene4981100 0.2 1017427
12:00+10se2388100 2.7 1017266
15:00+9sse51088100 6.4 1018614
18:00+8sw4691100 2.2 1017454
21:00+7w1193100 3.9 101893
18 april, sun
sun1800:00+6sw1292100 0.1 101938
03:00+5sw2293100 0.1 101950
06:00+4wsw11935 0.0 101915
09:00+8s117944 0.0 1019438
12:00+8sse2371100 0.6 1020704
15:00+10se235696 0.6 10201199
18:00+10se2360100 0.1 1020906
21:00+8sse227069 0.2 102118
19 april, mon
mon1900:00+7sse117381 0.0 102111
03:00+6e1175100 0.0 102110
06:00+6ene2278100 0.0 102121
09:00+9e3464100 0.0 1020393
12:00+12ene4557100 0.0 10201397
15:00+10ene677299 0.6 10191114
18:00+8ene71288100 1.6 1019810
21:00+6e71391100 4.6 1020749
20 april, tue
tue2000:00+5e71290100 0.9 1019631
03:00+5ene71294100 3.1 1018559
06:00+5ene81594100 4.3 1016741
09:00+5e81694100 6.8 1014761
12:00+6e91693100 2.8 1012823
15:00+6e101994100 7.9 1008943
18:00+7ese132392100 9.8 10041296
21:00+9ese132389100 11.2 10011129
21 april, wed
wed2100:00+11se11198362 0.6 9991182
03:00+8sse111885100 0.9 9991236
06:00+8sse111991100 1.9 9981646
09:00+5s111796100 2.4 10021171
12:00+5ssw101788100 0.1 10061195
15:00+7ssw91479100 0.2 10101392
18:00+7ssw81381100 0.1 10131118
21:00+6ssw6128490 0.2 1016464